This is the latest recevied weather packets stored in our database for station/object KG0HG. If no packets are shown the sender has not sent any weather packets the latest 10 day(s).
| Time | Temp. | Humidity | Pressure | Rain* | Wind** | Luminosity | Snow |
|---|---|---|---|---|---|---|---|
| 1777558991 | 12.22° C | 79% | 1019.1 hPa | 0 mm | - | 84 W/m² | - |
| 1777558687 | 11.67° C | 79% | 1019 hPa | 0 mm | - | 86 W/m² | - |
| 1777558383 | 11.11° C | 83% | 1019.3 hPa | 0 mm | - | 72 W/m² | - |
| 1777558079 | 10.56° C | 89% | 1019.3 hPa | 0 mm | - | 65 W/m² | - |
| 1777557776 | 10° C | 92% | 1019.1 hPa | 0 mm | - | 49 W/m² | - |
| 1777557472 | 9.44° C | 96% | 1019.2 hPa | 0 mm | - | 43 W/m² | - |
| 1777557169 | 8.89° C | 97% | 1019.2 hPa | 0 mm | - | 61 W/m² | - |
| 1777556864 | 8.33° C | 99% | 1019.5 hPa | 0 mm | - | 60 W/m² | - |
| 1777556561 | 8.33° C | 99% | 1019.5 hPa | 0 mm | - | 54 W/m² | - |
| 1777556260 | 7.78° C | 99% | 1019.2 hPa | 0 mm | - | 72 W/m² | - |
| 1777555956 | 7.78° C | 99% | 1019.4 hPa | 0 mm | - | 37 W/m² | - |
| 1777555652 | 7.78° C | 99% | 1019.4 hPa | 0 mm | - | 29 W/m² | - |
| 1777555349 | 7.22° C | 99% | 1019.4 hPa | 0 mm | - | 57 W/m² | - |
| 1777555045 | 6.67° C | 99% | 1019.2 hPa | 0 mm | - | 39 W/m² | - |
| 1777554742 | 6.67° C | 99% | 1019.2 hPa | 0 mm | - | 26 W/m² | - |
| 1777554440 | 6.11° C | 99% | 1019.3 hPa | 0 mm | - | 18 W/m² | - |
| 1777554136 | 6.11° C | 99% | 1019.2 hPa | 0 mm | - | 21 W/m² | - |
| 1777553833 | 5.56° C | 99% | 1019.2 hPa | 0 mm | - | 37 W/m² | - |
| 1777553529 | 5.56° C | 99% | 1019.4 hPa | 0 mm | - | 26 W/m² | - |
| 1777553225 | 5° C | 99% | 1019.5 hPa | 0 mm | - | 19 W/m² | - |
| 1777552921 | 5° C | 99% | 1019.3 hPa | 0 mm | - | 17 W/m² | - |
| 1777552616 | 5° C | 99% | 1019.3 hPa | 0 mm | - | 16 W/m² | - |
| 1777552313 | 5° C | 99% | 1019.2 hPa | 0 mm | - | 15 W/m² | - |
| 1777552009 | 5° C | 99% | 1019.5 hPa | 0 mm | - | 13 W/m² | - |
| 1777551706 | 5° C | 99% | 1019.2 hPa | 0 mm | - | 12 W/m² | - |
* Rain latest hour (hover to see other rain measurements)
** Current wind speed in m/s (hover to see current wind gust speed)